EDT,Max TemperatureF,Mean TemperatureF,Min TemperatureF,Max Dew PointF,MeanDew PointF,Min DewpointF,Max Humidity, Mean Humidity, Min Humidity, Max Sea Level PressureIn, Mean Sea Level PressureIn, Min Sea Level PressureIn, Max VisibilityMiles, Mean VisibilityMiles, Min VisibilityMiles, Max Wind SpeedMPH, Mean Wind SpeedMPH, Max Gust SpeedMPH,PrecipitationIn, CloudCover, Events, WindDirDegrees
2013-5-1,74,62,50,59,52,48,90,71,49,30.23,30.17,30.08,,,,12,5,,0.00,,,135
2013-5-2,73,64,54,50,46,38,76,57,38,30.26,30.21,30.14,,,,10,4,,0.00,,,124
2013-5-3,73,64,54,49,43,36,63,49,27,30.13,30.10,30.05,,,,9,5,,0.00,,,121
2013-5-4,68,61,54,46,41,36,74,50,26,30.13,30.09,30.06,,,,9,8,17,0.00,,,115
2013-5-5,70,62,53,43,40,36,64,45,25,30.11,30.05,30.00,,,,8,5,18,0.00,,,99
2013-5-6,70,58,47,47,41,35,74,53,33,30.06,30.01,29.97,,,,7,4,,0.00,,,95
2013-5-7,72,60,49,54,48,34,86,62,41,30.05,30.01,29.98,,,,8,4,,0.00,,,97
2013-5-8,71,63,55,55,50,42,86,63,44,29.99,29.96,29.93,,,,8,4,,0.00,,,74
2013-5-9,76,64,53,57,51,42,93,61,31,29.96,29.93,29.90,,,,10,5,,0.00,,,196
2013-5-10,71,61,48,63,55,42,96,75,45,29.89,29.79,29.72,,,,14,8,21,0.00,,,234
2013-5-11,57,50,41,47,42,31,87,74,63,29.90,29.83,29.75,,,,16,7,28,0.02,,,286
2013-5-12,49,44,37,33,28,22,74,54,30,30.10,29.95,29.88,,,,17,10,28,0.00,,,289
2013-5-13,53,42,31,32,25,21,78,52,22,30.18,30.13,30.09,,,,9,4,18,0.00,,,291
2013-5-14,68,54,40,50,41,29,73,56,38,30.12,29.94,29.71,,,,17,9,22,0.00,,,162
2013-5-15,83,70,57,57,50,39,83,51,15,29.75,29.66,29.59,,,,16,8,26,0.00,,,248
2013-5-16,79,66,53,46,43,39,70,41,18,29.98,29.85,29.73,,,,12,5,18,0.00,,,276
2013-5-17,69,58,46,43,40,34,83,52,26,30.14,30.09,29.99,,,,10,6,,0.00,,,62
2013-5-18,72,61,50,46,43,39,75,48,29,30.13,30.09,30.03,,,,7,5,,0.00,,,84
2013-5-19,80,67,54,62,56,44,85,68,46,30.02,29.97,29.90,,,,12,5,,0.00,,,126
2013-5-20,83,72,61,69,63,58,93,72,40,29.93,29.86,29.78,,,,17,7,20,0.00,,,170
2013-5-21,86,77,68,66,60,55,85,58,33,29.81,29.76,29.70,,,,14,9,21,0.00,,,213
2013-5-22,80,72,65,64,61,57,88,69,47,29.75,29.70,29.62,,,,16,9,24,0.35,,,225
2013-5-23,68,55,42,61,53,38,97,88,77,30.10,29.82,29.68,,,,15,9,25,0.24,,,302
2013-5-24,53,46,38,38,36,31,86,68,46,30.34,30.27,30.12,,,,9,7,18,0.00,,,20
2013-5-25,63,49,35,42,36,34,93,62,33,30.40,30.34,30.28,,,,8,3,,0.00,,,16
2013-5-26,64,51,38,42,34,26,79,49,22,30.34,30.29,30.23,,,,9,3,,0.00,,,348
2013-5-27,60,51,42,51,43,30,95,73,53,30.26,30.18,30.01,,,,12,4,,0.28,,,107
2013-5-28,74,62,51,68,60,52,97,89,72,30.00,29.90,29.83,,,,20,5,44,0.24,,,168
2013-5-29,81,74,67,68,63,60,86,68,56,29.98,29.90,29.80,,,,16,12,24,0.00,,,224
2013-5-30,84,75,66,68,64,59,92,70,50,30.06,30.01,29.96,,,,18,7,31,0.35,,,189
2013-5-31,79,73,67,69,65,63,91,79,63,29.99,29.94,29.87,,,,14,8,21,0.02,,,192